This demonstration page uses our WeatherBlox Daily Observations layout. Learn more.

Left ArrowRight Arrow

Hourly Observations for May 7, 2018

Temp ( °F °C ) Dew Point ( °F °C ) Humidity (%) Winds ( mph kmh ) Pressure ( in mb ) Visibility ( mi km ) Precip ( " mm )
12:56 am 00:56 Clear 56 13.3 44 6.7 65 65 E 5 7 30.15 1021 10 16 0.00 0.00
1:56 am 01:56 Clear 55 12.8 45 7.2 69 69 ENE 6 9 30.16 1021 10 16 0.00 0.00
2:56 am 02:56 Clear 54 12.2 45 7.2 72 72 E 5 7 30.16 1021 10 16 0.00 0.00
3:56 am 03:56 Clear 54 12.2 44 6.7 69 69 ESE 5 7 30.16 1021 10 16 0.00 0.00
4:56 am 04:56 Clear 52 11.1 43 6.1 72 72 SSE 3 6 30.17 1022 10 16 0.00 0.00
6:56 am 06:56 Sunny 52 11.1 45 7.2 77 77 SE 7 11 30.17 1022 10 16 0.00 0.00
7:56 am 07:56 Sunny 58 14.4 48 8.9 70 70 SE 8 13 30.18 1022 10 16 0.00 0.00
8:56 am 08:56 Sunny 64 17.8 49 9.4 58 58 SSE 13 20 30.18 1022 10 16 0.00 0.00
9:56 am 09:56 Sunny 70 21.1 49 9.4 47 47 SSE 16 26 30.16 1021 10 16 0.00 0.00
10:56 am 10:56 Sunny 74 23.3 47 8.3 38 38 SE 25 41 30.12 1020 10 16 0.00 0.00
11:56 am 11:56 Sunny 77 25 49 9.4 37 37 S 18 30 30.11 1020 10 16 0.00 0.00
12:56 pm 12:56 Sunny 79 26.1 49 9.4 35 35 SE 17 28 30.08 1019 10 16 0.00 0.00
1:56 pm 13:56 Sunny 81 27.2 49 9.4 33 33 SSE 23 37 30.04 1017 10 16 0.00 0.00
2:56 pm 14:56 Sunny 81 27.2 49 9.4 33 33 S 18 30 30.01 1016 10 16 0.00 0.00
3:56 pm 15:56 Sunny 84 28.9 50 10 31 31 S 23 37 29.98 1015 10 16 0.00 0.00
4:56 pm 16:56 Sunny 84 28.9 49 9.4 30 30 SSE 18 30 29.96 1015 10 16 0.00 0.00
5:56 pm 17:56 Sunny 83 28.3 48 8.9 30 30 SSE 23 37 29.95 1014 10 16 0.00 0.00
6:56 pm 18:56 Sunny 81 27.2 48 8.9 32 32 SSE 22 35 29.94 1014 10 16 0.00 0.00
7:56 pm 19:56 Sunny 78 25.6 49 9.4 36 36 SSE 15 24 29.93 1013 10 16 0.00 0.00
8:56 pm 20:56 Clear 74 23.3 49 9.4 41 41 SSE 15 24 29.92 1013 10 16 0.00 0.00
9:56 pm 21:56 Clear 72 22.2 49 9.4 44 44 SSE 17 28 29.90 1013 10 16 0.00 0.00
10:56 pm 22:56 Clear 70 21.1 49 9.4 47 47 SSE 16 26 29.89 1012 10 16 0.00 0.00
11:56 pm 23:56 Clear 68 20 50 10 53 53 SSE 16 26 29.87 1012 10 16 0.00 0.00

Powered by AerisWeather